Regional Weather Roundup
Issued by NWS

Home | Current Version | Previous Version | Text Only | Print | Product List | Glossary Off
Versions: 1 2 3 4 5 6 7 8 9 10 11 12 13 14 15 16 17 18 19 20 21 22 23 24 25 26 27 28 29 30 31 32 33 34 35 36 37 38 39 40 41 42 43 44 45 46 47 48 49 50

000
ASUS43 KFSD 220210
RWRSD

WEATHER ROUNDUP FOR SOUTH DAKOTA
NATIONAL WEATHER SERVICE SIOUX FALLS SD
900 PM CDT SAT OCT 21 2017

NOTE: "FAIR" INDICATES FEW OR NO CLOUDS BELOW 12,000 FEET WITH NO
SIGNIFICANT WEATHER AND/OR OBSTRUCTIONS TO VISIBILITY.


SDZ001>005-009-010-012>017-220300-
NORTHWEST AND NORTH CENTRAL SOUTH DAKOTA

CITY           SKY/WX    TMP DP  RH WIND       PRES   REMARKS
BUFFALO          N/A     39  22  50 W14       29.84R
MOBRIDGE       CLOUDY    50  39  66 CALM      29.83R
$$

SDZ012>016-024>037-041>051-057-063-072>074-220300-
SOUTHWEST AND SOUTH CENTRAL SOUTH DAKOTA

CITY           SKY/WX    TMP DP  RH WIND       PRES   REMARKS
RAPID CTY ARPT CLEAR     38  17  42 W5        29.96R
PIERRE         MOCLDY    50  36  58 W7        29.90R
CUSTER         CLEAR     36  11  35 W5        29.99R
ELLSWORTH AFB  CLEAR     39  16  39 W7        29.95R
PHILIP         PTCLDY    44  28  53 NW7       29.95R
PINE RIDGE     CLEAR     36  23  59 CALM      30.00R
SPEARFISH      FAIR      41  18  38 MISG      29.97R
WINNER         FAIR      45  32  60 W8        29.94R
$$

SDZ004>011-016>023-039-040-220300-
NORTHEAST SOUTH DAKOTA

CITY           SKY/WX    TMP DP  RH WIND       PRES   REMARKS
ABERDEEN       CLOUDY    49  40  71 W12       29.83R
WATERTOWN      PTCLDY    44  40  85 SW7       29.81F
BROOKINGS      CLEAR     43  39  86 SW7       29.85F
SISSETON         N/A     52  41  66 W12       29.77S
$$

SDZ017-020-022-023-036>040-048>070-220300-
SOUTHEAST SOUTH DAKOTA

CITY           SKY/WX    TMP DP  RH WIND       PRES   REMARKS
SIOUX FALLS    CLEAR     48  41  76 SW3       29.89F
HURON          CLEAR     48  37  65 W7        29.87S
CHAMBERLAIN    CLOUDY    49  37  65 W5        29.91S
MITCHELL       CLEAR     48  37  65 SW7       29.89F
YANKTON        CLEAR     47  38  71 W7        29.92F
$$

ABBREVIATIONS USED IN REMARKS
   TC - TEMPERATURE IN CELSIUS
  WCI - WIND CHILL INDEX
   HX - HEAT INDEX
  VSB - VISIBILITY





USA.gov is the U.S. government's official web portal to all federal, state and local government web resources and services.